Tracking 19242 objects as of 20-Sep-2018
HD Live streaming from Space Station
objects crossing your sky now

FENGYUN 1C DEB

Track FENGYUN 1C DEB now!
10-day predictions


NORAD ID: 31809
Int'l Code: 1999-025CGX
Perigee: 687.1 km
Apogee: 725.9 km
Inclination: 98.8 °
Period: 98.8 minutes
Semi major axis: 7077 km
RCS: 0.0028 m2 (small)
Launch date: May 10, 1999
Source: People's Republic of China (PRC)
Launch site: Taiyaun Space Center, China (TSC)

Note: This is SATELLITE DEBRIS
aabbcc
Your satellite tracking list
Your tracking list is empty




NASA's NSSDC Master Catalog

Two Line Element Set (TLE):
1 31809U 99025CGX 18249.66455135 +.00001783 +00000-0 +39685-3 0  9998
2 31809 098.8378 049.7967 0027367 038.6318 321.6831 14.58080310592776
Source of the keplerian elements: AFSPC